Address 0x579435914e1d9fc5eac3ab6c15cf6eb7cbc09669 15

Overview

Balance:
7.285566283802067944 GLMR

GLMR Value:
$3.55 (@ $0.49/GLMR)

Token:
Txn Hash Method
Block
From
To
Value [Txn Fee]
0x190a8fcc0293128684e9c261d1227aa2de9266faa76a5f48732a3100f4f0acc80x87e08c256544932022-03-22 1:18:48312 days 1 hr ago0x579435914e1d9fc5eac3ab6c15cf6eb7cbc09669OUT 0xe90d415af331237ae18a882ec21870f1965be9338 GLMR0.02564
0x994466b51db6432d3018c40d466536833737069c4f3d569351d32c635f3136c8Swapout5354542022-03-05 2:08:00329 days 38 mins ago0x579435914e1d9fc5eac3ab6c15cf6eb7cbc09669OUT Multichain: BUSD Token0 GLMR0.0065566
0x68ada958062f12b4961b058471254cf72238e253cf829a63fc9d26693bc88185Swap Exact ETH F...5354502022-03-05 2:07:12329 days 39 mins ago0x579435914e1d9fc5eac3ab6c15cf6eb7cbc09669OUT StellaSwap: Router v2350 GLMR0.0207578
0x1c4e3e1dfcc94137651855f29879e445d8608163dcb89bed690e666d90fe367dSwap Exact Token...5354472022-03-05 2:06:36329 days 39 mins ago0x579435914e1d9fc5eac3ab6c15cf6eb7cbc09669OUT StellaSwap: Router v20 GLMR0.0277768
0x8f5ecd195e7d5a2320bdf20e17f6704a4a4b55979c5c5f35132227dd9224f1efRemove Liquidity...5354452022-03-05 2:06:12329 days 40 mins ago0x579435914e1d9fc5eac3ab6c15cf6eb7cbc09669OUT StellaSwap: Router v20 GLMR0.0363388
0xb154ae7aca169993b1d4104f75dfb90a8d76bba728252f191a085c7ab8a5d2b0Approve5354352022-03-05 2:04:06329 days 42 mins ago0x579435914e1d9fc5eac3ab6c15cf6eb7cbc09669OUT 0x367c36dae9ba198a4fee295c22bc98cb72f77fe10 GLMR0.0093028
0x52b0bd62ac8134113534cdbb65845a2d272306831677822a83118fc1b8a15a25Deposit5354312022-03-05 2:03:18329 days 43 mins ago0x579435914e1d9fc5eac3ab6c15cf6eb7cbc09669OUT StellaSwap: Distributor0 GLMR0.0247274
0x2535c265b72b16dd77732776f698a5e59087aa27b6f9278128807bc3ba914d76Withdraw5354302022-03-05 2:03:06329 days 43 mins ago0x579435914e1d9fc5eac3ab6c15cf6eb7cbc09669OUT StellaSwap: Distributor0 GLMR0.0317832
0x5b10fd2e4d03e64da88562a87b0955a4059bde0ed6aff4551331233072dc21b6Swap Exact Token...5154862022-03-02 5:21:54331 days 21 hrs ago0x579435914e1d9fc5eac3ab6c15cf6eb7cbc09669OUT StellaSwap: Router v20 GLMR0.0138903
0xb35aab5bfc8a5e66cda3481d05d9177cc0769c1c94ef34bff4a0e597f1f6840aDeposit5154822022-03-02 5:21:06331 days 21 hrs ago0x579435914e1d9fc5eac3ab6c15cf6eb7cbc09669OUT StellaSwap: Distributor0 GLMR0.0162803
0x13b2f0ea36152d7436d9e7995b96323c9edebc09c4fe30f35277e1c8963e8b9fSwap Exact Token...4668842022-02-23 5:05:54338 days 21 hrs ago0x579435914e1d9fc5eac3ab6c15cf6eb7cbc09669OUT StellaSwap: Router v20 GLMR0.0138893
0x92f4064b70f79403d39ce4683ac4864aab2202d95b7a4efe9e1c318df1635caeDeposit4668802022-02-23 5:05:00338 days 21 hrs ago0x579435914e1d9fc5eac3ab6c15cf6eb7cbc09669OUT StellaSwap: Distributor0 GLMR0.0162803
0xb7aeb2c165a858bb4f0abf232372a3fb0bb6d6c873e7833ce429e53702641ef9Swap Exact Token...4327032022-02-18 5:33:36343 days 21 hrs ago0x579435914e1d9fc5eac3ab6c15cf6eb7cbc09669OUT StellaSwap: Router v20 GLMR0.0138893
0x0b79744e6b6e6b7335386f012f2890301a5e256f31fe327e274175ce668f5352Deposit4326992022-02-18 5:32:48343 days 21 hrs ago0x579435914e1d9fc5eac3ab6c15cf6eb7cbc09669OUT StellaSwap: Distributor0 GLMR0.0162803
0x244320931728ea548494725913fee7bdc91322831508d12292f776ca823c0904Deposit4130362022-02-15 6:37:00346 days 20 hrs ago0x579435914e1d9fc5eac3ab6c15cf6eb7cbc09669OUT StellaSwap: Distributor0 GLMR0.0186454
0xf32bc01648bee38ae8e48b9819fc7ed30fd72c0aa6dd6015c91aea35949c3e8dApprove4130322022-02-15 6:36:06346 days 20 hrs ago0x579435914e1d9fc5eac3ab6c15cf6eb7cbc09669OUT 0x367c36dae9ba198a4fee295c22bc98cb72f77fe10 GLMR0.0044414
0x0c5c16f24aa19fd00d08e7cca7f68d27dc7e46d269ff7f34984b24aed8ae40b7Add Liquidity ET...4130302022-02-15 6:35:42346 days 20 hrs ago0x579435914e1d9fc5eac3ab6c15cf6eb7cbc09669OUT StellaSwap: Router v2280 GLMR0.015845
0x503e42201dc1dae6559fff5e79adeb5324ccf01138b552ba21ae182ed53434c0Approve4130252022-02-15 6:34:42346 days 20 hrs ago0x579435914e1d9fc5eac3ab6c15cf6eb7cbc09669OUT Multichain: BUSD Token0 GLMR0.0044511
0x2792f1f8b359be93fafdc812443e05e7882ddcc8a22a2d782b5b2988de2f9deaSwap Exact Token...4130232022-02-15 6:34:18346 days 20 hrs ago0x579435914e1d9fc5eac3ab6c15cf6eb7cbc09669OUT StellaSwap: Router v20 GLMR0.0119828
0x050e7c0ca2d9156b9eee6b1745097ddbcf193533cb5625c7cc55ae16633f8180Swap Exact Token...4130112022-02-15 6:30:36346 days 20 hrs ago0x579435914e1d9fc5eac3ab6c15cf6eb7cbc09669OUT StellaSwap: Router v20 GLMR0.0111846
0x19ef90121622412c82ff2c9c56ce47b46a80901a6b779c28785a3cfaf6ba87d9Remove Liquidity...4129552022-02-15 6:17:42346 days 20 hrs ago0x579435914e1d9fc5eac3ab6c15cf6eb7cbc09669OUT StellaSwap: Router v20 GLMR0.0131709
0xd050c7484fe84627c72633611dbbc10b514434ad9e72a8a5e3d0785ae89647d6Approve4129512022-02-15 6:16:48346 days 20 hrs ago0x579435914e1d9fc5eac3ab6c15cf6eb7cbc09669OUT 0x555b74dafc4ef3a5a1640041e3244460dc7610d10 GLMR0.0044414
0x1ab9a413b59474f89b4ff6492fed2dc0d97f67c7eb49ad484164918f643ec94cWithdraw4129432022-02-15 6:15:00346 days 20 hrs ago0x579435914e1d9fc5eac3ab6c15cf6eb7cbc09669OUT StellaSwap: Distributor0 GLMR0.0143821
0x25e9eb1f88f91d8f85decbbdee41f520f174348523b314e1bab0aa0e88ed9a9aDeposit4129422022-02-15 6:14:42346 days 20 hrs ago0x579435914e1d9fc5eac3ab6c15cf6eb7cbc09669OUT StellaSwap: Distributor0 GLMR0.0145303
0xafcd5c15b11efec293e533c09df8919d5355d87bab0a0f37cbaba14bc48d7dffDeposit3510972022-02-06 4:10:24355 days 22 hrs ago0x579435914e1d9fc5eac3ab6c15cf6eb7cbc09669OUT StellaSwap: Distributor0 GLMR0.0066702
[ Download CSV Export 
Latest 7 internal transactions
Parent Txn Hash Block From To Value
0x8f5ecd195e7d5a2320bdf20e17f6704a4a4b55979c5c5f35132227dd9224f1ef5354452022-03-05 2:06:12329 days 40 mins ago StellaSwap: Router v20x579435914e1d9fc5eac3ab6c15cf6eb7cbc09669361.549388982258034297 GLMR
0x0c5c16f24aa19fd00d08e7cca7f68d27dc7e46d269ff7f34984b24aed8ae40b74130302022-02-15 6:35:42346 days 20 hrs ago StellaSwap: Router v20x579435914e1d9fc5eac3ab6c15cf6eb7cbc096690.192647249850935807 GLMR
0x19ef90121622412c82ff2c9c56ce47b46a80901a6b779c28785a3cfaf6ba87d94129552022-02-15 6:17:42346 days 20 hrs ago StellaSwap: Router v20x579435914e1d9fc5eac3ab6c15cf6eb7cbc09669271.051262167668027012 GLMR
0x8ea10570e2987b3511e2d1c82039998e09f73783e6484ca71867ba66cdd5744d2331592022-01-20 7:42:18372 days 19 hrs ago StellaSwap: Router v20x579435914e1d9fc5eac3ab6c15cf6eb7cbc096690.641541989712688785 GLMR
0xdd83f0ef4bee5725351489ec6cafcefd6923328cd2b1ce66fa08dfd92b9871e62331562022-01-20 7:41:42372 days 19 hrs ago Moonbeam: WGLMR Token0x579435914e1d9fc5eac3ab6c15cf6eb7cbc09669179.38462135957180426 GLMR
0xaf1c5de86956393e1e042f9a22743d20f2db000c5b25f6a46b4f34a669b788df2258512022-01-19 6:17:24373 days 20 hrs ago Moonbeam: WGLMR Token0x579435914e1d9fc5eac3ab6c15cf6eb7cbc096691.83238177528338805 GLMR
0x8a8c27d15a7dd31fd32ae52b06860c7b2e1aac2397e976c885b36babd3451ebb2258042022-01-19 6:07:54373 days 20 hrs ago Moonbeam: WGLMR Token0x579435914e1d9fc5eac3ab6c15cf6eb7cbc09669306 GLMR
[ Download CSV Export 
Loading

Contract Name:
0

Compiler Version
0

Optimization Enabled:
0

Other Settings:
-NA-
Block Transaction Gas Used Reward
Age Block Fee Address BC Fee Address Voting Power Jailed Incoming
Block Uncle Number Difficulty Gas Used Reward
Loading
Make sure to use the "Vote Down" button for any spammy posts, and the "Vote Up" for interesting conversations.